This is the latest recevied weather packets stored in our database for station/object KC8PTQ. If no packets are shown the sender has not sent any weather packets the latest 10 day(s).
| Time | Temp. | Humidity | Pressure | Rain* | Wind** | Luminosity | Snow |
|---|---|---|---|---|---|---|---|
| 1778239864 | 6.67° C | 96% | 1013.8 hPa | 0 mm | - | 25 W/m² | - |
| 1778239560 | 6.67° C | 97% | 1013.8 hPa | 0 mm | - | 23 W/m² | - |
| 1778239257 | 6.67° C | 97% | 1013.6 hPa | 0 mm | - | 25 W/m² | - |
| 1778238954 | 6.67° C | 97% | 1014.1 hPa | 0 mm | - | 20 W/m² | - |
| 1778238651 | 6.67° C | 97% | 1013.8 hPa | 0 mm | - | 19 W/m² | - |
| 1778238349 | 6.67° C | 97% | 1013.7 hPa | 0 mm | - | 18 W/m² | - |
| 1778238045 | 6.67° C | 97% | 1013.7 hPa | 0 mm | - | 18 W/m² | - |
| 1778237740 | 6.67° C | 97% | 1013.6 hPa | 0 mm | - | 13 W/m² | - |
| 1778237437 | 6.67° C | 97% | 1013.9 hPa | 0 mm | - | 14 W/m² | - |
| 1778237135 | 6.67° C | 97% | 1013.7 hPa | 0 mm | - | 9 W/m² | - |
| 1778236831 | 6.67° C | 97% | 1013.7 hPa | 0 mm | - | 7 W/m² | - |
| 1778236528 | 6.67° C | 97% | 1013.9 hPa | 0 mm | - | 4 W/m² | - |
| 1778236226 | 6.67° C | 96% | 1013.8 hPa | 0 mm | - | 4 W/m² | - |
| 1778235923 | 6.67° C | 96% | 1014 hPa | 0 mm | - | 3 W/m² | - |
| 1778235621 | 6.67° C | 96% | 1013.9 hPa | 0 mm | - | 1 W/m² | - |
| 1778235318 | 6.67° C | 95% | 1013.8 hPa | 1.78 mm | - | 1 W/m² | - |
| 1778235015 | 6.67° C | 95% | 1013.7 hPa | 1.78 mm | - | 0 W/m² | - |
| 1778234713 | 6.67° C | 95% | 1013.6 hPa | 0 mm | - | 0 W/m² | - |
| 1778234410 | 6.67° C | 95% | 1013.7 hPa | 0 mm | - | 0 W/m² | - |
| 1778234107 | 6.67° C | 95% | 1013.6 hPa | 0 mm | - | 0 W/m² | - |
| 1778233804 | 6.67° C | 94% | 1013.3 hPa | 0 mm | - | 0 W/m² | - |
| 1778233501 | 6.67° C | 94% | 1013.5 hPa | 0 mm | - | 0 W/m² | - |
| 1778233197 | 6.67° C | 93% | 1013.4 hPa | 0 mm | - | 0 W/m² | - |
| 1778232895 | 6.67° C | 93% | 1013.6 hPa | 0 mm | - | 0 W/m² | - |
| 1778232592 | 6.67° C | 92% | 1013.5 hPa | 0 mm | - | 0 W/m² | - |
* Rain latest hour (hover to see other rain measurements)
** Current wind speed in m/s (hover to see current wind gust speed)